Tracking 27107 objects as of 21-Mar-2023
HD Live streaming from Space Station
objects crossing your sky now

CANX-6

Track CANX-6 now!
10-day predictions
CANX-6 is classified as:


NORAD ID: 32784
Int'l Code: 2008-021B
Perigee: 596.2 km
Apogee: 617.7 km
Inclination: 97.7 °
Period: 96.7 minutes
Semi major axis: 6977 km
RCS: 0.1943 m2 (medium)
Launch date: April 28, 2008
Source: Canada (CA)
Launch site: SRIHARIKOTA (SRI)

CanX 6 is a 14-pound [6-kg] Canadian spacecraft designed to track ships using maritime navigation signals transmitted from sea vessels.
Your satellite tracking list
Your tracking list is empty




NASA's NSSDC Master Catalog

Two Line Element Set (TLE):
1 32784U 08021B   23080.43403241  .00004899  00000-0  52011-3 0  9991
2 32784  97.7321  46.0023 0015374  67.1098 293.1741 14.89405138807130
Source of the keplerian elements: AFSPC